utherverse.com alexa rank chart, utherverse.com alexa rank daily changes

utherverse.com alexa rank chart, utherverse.com alexa rank daily changes

utherverse.com
Actual rank:
69 044

RANK HISTORY

Date Rank Diff
2017/05/23 69 044 -873
2017/05/22 69 917 -1 360
2017/05/21 71 277 -325
2017/05/20 71 602 -1 314
2017/05/19 72 916 -451
2017/05/18 73 367 +506
2017/05/17 72 861 -389
2017/05/16 73 250 -2 153
2017/05/15 75 403 -1 299
2017/05/14 76 702 -486
2017/05/13 77 188 -587
2017/05/12 77 775 -217
2017/05/11 77 992 +385
2017/05/10 77 607 -1 039
2017/05/09 78 646 -781
2017/05/08 79 427 +1 417
2017/05/07 78 010 -891
2017/05/06 78 901 -898
2017/05/05 79 799 -514
2017/05/04 80 313 +1 786
2017/05/03 78 527 +2 514
2017/05/02 76 013 +485
2017/05/01 75 528 +567
2017/04/30 74 961 -729
2017/04/29 75 690 +1 016
2017/04/28 74 674 +2 507
2017/04/27 72 167 +1 032
2017/04/26 71 135 +1 068
2017/04/25 70 067 -779
2017/04/24 70 846 +409
2017/04/23 70 437 +924
2017/04/22 69 513 -168
2017/04/21 69 681 +2 603
2017/04/20 67 078 +1 712
2017/04/19 65 366 +944
2017/04/18 64 422 -671
2017/04/17 65 093 +344
2017/04/16 64 749 +538
2017/04/15 64 211 -182
2017/04/14 64 393 +1 018
2017/04/13 63 375 +1 410
2017/04/12 61 965 -85
2017/04/11 62 050 +473
2017/04/10 61 577 -77
2017/04/09 61 654 -362
2017/04/08 62 016 -1 357
2017/04/07 63 373 +647
2017/04/06 62 726 +1 052
2017/04/05 61 674 +834
2017/04/04 60 840 -422
2017/04/03 61 262 -1 151
2017/04/02 62 413 +194
2017/04/01 62 219 +208
2017/03/31 62 011 +124
2017/03/30 61 887 +693
2017/03/29 61 194 -557
2017/03/28 61 751 -638
2017/03/27 62 389 +1 067
2017/03/26 61 322 -435
2017/03/25 61 757 +38
2017/03/24 61 719

WIDGET FOR YOUR SITE

DOMAINS WITH THE NEAREST RANK

Domain Rank
parandco.com 69 039
opencritic.com 69 040
economywatch.com 69 041
jatengprov.go.id 69 042
didispace.com 69 043
utherverse.com 69 044
mol5sat.net 69 045
zavuch.ru 69 046
emmezeta.hr 69 047
bunnings.co.nz 69 048
lurninsider.com 69 049

DOMAINS WITH THE NEAREST RANK BY TLD .com

Domain Rank
jigsy.com 69 038
parandco.com 69 039
opencritic.com 69 040
economywatch.com 69 041
didispace.com 69 043
utherverse.com 69 044
lurninsider.com 69 049
studybay.com 69 052
anonymflirtkontakt.com 69 053
onlajny.com 69 054
banfield.com 69 055